Time,TemperatureF,DewpointF,PressureIn,WindDirection,WindDirectionDegrees,WindSpeedMPH,WindSpeedGustMPH,Humidity,HourlyPrecipIn,Conditions,Clouds,dailyrainin,SoftwareType,DateUTC
2013-09-03 00:11:00,68.4,67.8,29.70,West,270,0.0,-999.0,98,-99.99,,,0.00,Acu-Link.com,2013-09-03 04:11:00,
2013-09-03 00:26:00,68.2,67.6,29.69,NW,315,0.0,-999.0,98,-99.99,,,0.00,Acu-Link.com,2013-09-03 04:26:00,
2013-09-03 00:41:00,68.0,67.4,29.68,South,180,0.0,-999.0,98,-99.99,,,0.00,Acu-Link.com,2013-09-03 04:41:00,
2013-09-03 00:56:00,67.8,67.2,29.67,SSW,202,0.0,-999.0,98,-99.99,,,0.00,Acu-Link.com,2013-09-03 04:56:00,
2013-09-03 01:11:00,67.6,67.0,29.66,SSW,202,0.0,-999.0,98,-99.99,,,0.00,Acu-Link.com,2013-09-03 05:11:00,
2013-09-03 01:26:00,67.5,66.9,29.66,WSW,247,0.0,-999.0,98,-99.99,,,0.00,Acu-Link.com,2013-09-03 05:26:00,
2013-09-03 01:41:00,67.5,66.9,29.64,WNW,292,1.1,-999.0,98,-99.99,,,0.00,Acu-Link.com,2013-09-03 05:41:00,
2013-09-03 01:56:00,67.3,66.7,29.63,West,270,2.2,-999.0,98,-99.99,,,0.00,Acu-Link.com,2013-09-03 05:56:00,
2013-09-03 02:11:00,67.1,66.5,29.65,West,270,2.2,-999.0,98,-99.99,,,0.00,Acu-Link.com,2013-09-03 06:11:00,
2013-09-03 02:27:00,66.9,66.3,29.63,West,270,0.0,-999.0,98,-99.99,,,0.00,Acu-Link.com,2013-09-03 06:27:00,
2013-09-03 02:42:00,66.6,66.0,29.65,WSW,247,2.2,-999.0,98,-99.99,,,0.00,Acu-Link.com,2013-09-03 06:42:00,
2013-09-03 02:57:00,66.4,65.8,29.64,SW,225,1.1,-999.0,98,-99.99,,,0.00,Acu-Link.com,2013-09-03 06:57:00,
2013-09-03 03:12:00,66.2,65.6,29.64,West,270,0.0,-999.0,98,-99.99,,,0.00,Acu-Link.com,2013-09-03 07:12:00,
2013-09-03 03:27:00,65.7,65.1,29.64,West,270,0.0,-999.0,98,-99.99,,,0.00,Acu-Link.com,2013-09-03 07:27:00,
2013-09-03 03:42:00,65.1,64.5,29.63,West,270,0.0,-999.0,98,-99.99,,,0.00,Acu-Link.com,2013-09-03 07:42:00,
2013-09-03 03:57:00,64.8,64.2,29.64,West,270,0.0,-999.0,98,-99.99,,,0.00,Acu-Link.com,2013-09-03 07:57:00,
2013-09-03 04:13:00,64.8,64.2,29.64,West,270,1.7,-999.0,98,-99.99,,,0.00,Acu-Link.com,2013-09-03 08:13:00,
2013-09-03 04:28:00,64.8,64.2,29.64,West,270,1.7,-999.0,98,-99.99,,,0.00,Acu-Link.com,2013-09-03 08:28:00,
2013-09-03 04:43:00,64.8,64.2,29.64,West,270,1.7,-999.0,98,-99.99,,,0.00,Acu-Link.com,2013-09-03 08:43:00,
2013-09-03 04:58:00,64.4,63.8,29.65,West,270,0.0,-999.0,98,-99.99,,,0.00,Acu-Link.com,2013-09-03 08:58:00,
2013-09-03 05:14:00,64.0,63.4,29.65,West,270,0.0,-999.0,98,-99.99,,,0.00,Acu-Link.com,2013-09-03 09:14:00,
2013-09-03 05:29:00,63.7,63.1,29.66,West,270,0.0,-999.0,98,-99.99,,,0.00,Acu-Link.com,2013-09-03 09:29:00,
2013-09-03 05:44:00,63.5,62.9,29.66,NW,315,0.0,-999.0,98,-99.99,,,0.00,Acu-Link.com,2013-09-03 09:44:00,
2013-09-03 05:59:00,63.0,62.4,29.66,WNW,292,0.0,-999.0,98,-99.99,,,0.00,Acu-Link.com,2013-09-03 09:59:00,
2013-09-03 06:14:00,63.0,62.4,29.68,WNW,292,0.0,-999.0,98,-99.99,,,0.00,Acu-Link.com,2013-09-03 10:14:00,
2013-09-03 06:29:00,63.0,62.4,29.68,WNW,292,0.0,-999.0,98,-99.99,,,0.00,Acu-Link.com,2013-09-03 10:29:00,
2013-09-03 06:44:00,63.3,62.7,29.68,WNW,292,0.0,-999.0,98,-99.99,,,0.00,Acu-Link.com,2013-09-03 10:44:00,
2013-09-03 06:59:00,64.0,63.4,29.68,WNW,292,0.0,-999.0,98,-99.99,,,0.00,Acu-Link.com,2013-09-03 10:59:00,
2013-09-03 07:15:00,66.6,66.0,29.69,WNW,292,0.0,-999.0,98,-99.99,,,0.00,Acu-Link.com,2013-09-03 11:15:00,
2013-09-03 07:30:00,67.5,66.9,29.69,WNW,292,0.0,-999.0,98,-99.99,,,0.00,Acu-Link.com,2013-09-03 11:30:00,
2013-09-03 07:45:00,68.2,67.6,29.70,West,270,0.0,-999.0,98,-99.99,,,0.00,Acu-Link.com,2013-09-03 11:45:00,
2013-09-03 08:00:00,70.7,70.1,29.70,SE,135,0.0,-999.0,98,-99.99,,,0.00,Acu-Link.com,2013-09-03 12:00:00,
2013-09-03 08:15:00,69.3,68.7,29.70,WNW,292,0.0,-999.0,98,-99.99,,,0.00,Acu-Link.com,2013-09-03 12:15:00,
2013-09-03 08:30:00,70.7,70.1,29.69,ESE,112,1.7,-999.0,98,-99.99,,,0.00,Acu-Link.com,2013-09-03 12:30:00,
2013-09-03 08:45:00,71.2,70.6,29.69,NNE,22,2.7,-999.0,98,-99.99,,,0.00,Acu-Link.com,2013-09-03 12:45:00,
2013-09-03 09:00:00,74.1,73.5,29.70,East,90,1.7,-999.0,98,-99.99,,,0.00,Acu-Link.com,2013-09-03 13:00:00,
2013-09-03 09:15:00,73.4,72.8,29.71,SSE,157,1.7,-999.0,98,-99.99,,,0.00,Acu-Link.com,2013-09-03 13:15:00,
2013-09-03 09:31:00,74.1,73.5,29.71,SE,135,0.0,-999.0,98,-99.99,,,0.00,Acu-Link.com,2013-09-03 13:31:00,
2013-09-03 09:46:00,72.7,72.1,29.71,SE,135,2.7,-999.0,98,-99.99,,,0.00,Acu-Link.com,2013-09-03 13:46:00,
2013-09-03 10:01:00,74.3,73.7,29.71,ESE,112,1.7,-999.0,98,-99.99,,,0.00,Acu-Link.com,2013-09-03 14:01:00,
2013-09-03 10:16:00,74.8,74.2,29.71,WSW,247,0.0,-999.0,98,-99.99,,,0.00,Acu-Link.com,2013-09-03 14:16:00,
2013-09-03 10:31:00,74.7,74.1,29.71,WNW,292,0.0,-999.0,98,-99.99,,,0.00,Acu-Link.com,2013-09-03 14:31:00,
2013-09-03 10:46:00,72.9,72.3,29.70,WNW,292,0.0,-999.0,98,-99.99,,,0.00,Acu-Link.com,2013-09-03 14:46:00,
2013-09-03 11:01:00,74.1,73.5,29.69,West,270,1.7,-999.0,98,-99.99,,,0.00,Acu-Link.com,2013-09-03 15:01:00,
2013-09-03 11:16:00,74.7,74.1,29.69,NNE,22,2.2,-999.0,98,-99.99,,,0.00,Acu-Link.com,2013-09-03 15:16:00,
2013-09-03 11:31:00,74.1,73.5,29.69,South,180,1.7,-999.0,98,-99.99,,,0.00,Acu-Link.com,2013-09-03 15:31:00,
2013-09-03 11:46:00,75.2,74.6,29.68,West,270,0.0,-999.0,98,-99.99,,,0.00,Acu-Link.com,2013-09-03 15:46:00,
2013-09-03 12:02:00,77.0,76.4,29.68,West,270,3.2,-999.0,98,-99.99,,,0.00,Acu-Link.com,2013-09-03 16:02:00,
2013-09-03 12:17:00,75.0,74.4,29.69,WNW,292,0.0,-999.0,98,-99.99,,,0.00,Acu-Link.com,2013-09-03 16:17:00,
2013-09-03 12:32:00,73.6,73.0,29.69,ESE,112,0.0,-999.0,98,-99.99,,,0.00,Acu-Link.com,2013-09-03 16:32:00,
2013-09-03 12:47:00,73.2,72.6,29.69,SE,135,0.0,-999.0,98,-99.99,,,0.00,Acu-Link.com,2013-09-03 16:47:00,
2013-09-03 13:02:00,71.8,71.2,29.69,NW,315,1.1,-999.0,98,-99.99,,,0.00,Acu-Link.com,2013-09-03 17:02:00,
2013-09-03 13:17:00,71.4,70.8,29.69,WSW,247,0.0,-999.0,98,-99.99,,,0.00,Acu-Link.com,2013-09-03 17:17:00,
2013-09-03 13:32:00,71.6,71.0,29.69,West,270,0.0,-999.0,98,-99.99,,,0.00,Acu-Link.com,2013-09-03 17:32:00,
2013-09-03 13:47:00,70.9,70.3,29.69,West,270,2.7,-999.0,98,-99.99,,,0.00,Acu-Link.com,2013-09-03 17:47:00,
2013-09-03 14:02:00,69.4,68.8,29.69,WNW,292,2.7,-999.0,98,-99.99,,,0.00,Acu-Link.com,2013-09-03 18:02:00,
2013-09-03 14:18:00,69.4,68.8,29.69,WNW,292,1.1,-999.0,98,-99.99,,,0.00,Acu-Link.com,2013-09-03 18:18:00,
2013-09-03 14:33:00,69.6,69.0,29.68,West,270,3.7,-999.0,98,-99.99,,,0.00,Acu-Link.com,2013-09-03 18:33:00,
2013-09-03 14:48:00,69.8,69.2,29.68,WNW,292,1.1,-999.0,98,-99.99,,,0.00,Acu-Link.com,2013-09-03 18:48:00,
2013-09-03 15:03:00,70.7,70.1,29.68,West,270,1.7,-999.0,98,-99.99,,,0.00,Acu-Link.com,2013-09-03 19:03:00,
2013-09-03 15:18:00,69.8,69.2,29.69,West,270,2.2,-999.0,98,-99.99,,,0.00,Acu-Link.com,2013-09-03 19:18:00,
2013-09-03 15:33:00,70.2,69.6,29.69,WNW,292,2.7,-999.0,98,-99.99,,,0.00,Acu-Link.com,2013-09-03 19:33:00,
2013-09-03 15:49:00,72.5,71.9,29.68,WSW,247,2.2,-999.0,98,-99.99,,,0.00,Acu-Link.com,2013-09-03 19:49:00,
2013-09-03 16:04:00,73.0,72.4,29.68,SW,225,0.0,-999.0,98,-99.99,,,0.00,Acu-Link.com,2013-09-03 20:04:00,
2013-09-03 16:19:00,73.0,72.4,29.68,NW,315,1.7,-999.0,98,-99.99,,,0.00,Acu-Link.com,2013-09-03 20:19:00,
2013-09-03 16:34:00,73.4,72.8,29.68,West,270,1.7,-999.0,98,-99.99,,,0.00,Acu-Link.com,2013-09-03 20:34:00,
2013-09-03 16:49:00,73.8,73.2,29.68,WSW,247,2.2,-999.0,98,-99.99,,,0.00,Acu-Link.com,2013-09-03 20:49:00,
2013-09-03 17:04:00,72.9,72.3,29.68,SSW,202,1.1,-999.0,98,-99.99,,,0.00,Acu-Link.com,2013-09-03 21:04:00,
2013-09-03 17:19:00,74.1,73.5,29.68,SW,225,3.2,-999.0,98,-99.99,,,0.00,Acu-Link.com,2013-09-03 21:19:00,
2013-09-03 17:50:00,73.6,73.0,29.69,WNW,292,1.1,-999.0,98,-99.99,,,0.00,Acu-Link.com,2013-09-03 21:50:00,
2013-09-03 18:05:00,73.2,72.6,29.69,West,270,2.2,-999.0,98,-99.99,,,0.00,Acu-Link.com,2013-09-03 22:05:00,
2013-09-03 18:20:00,72.7,72.1,29.69,West,270,0.0,-999.0,98,-99.99,,,0.00,Acu-Link.com,2013-09-03 22:20:00,
2013-09-03 18:35:00,71.1,70.5,29.69,South,180,0.0,-999.0,98,-99.99,,,0.00,Acu-Link.com,2013-09-03 22:35:00,
2013-09-03 18:50:00,70.2,69.6,29.70,SW,225,0.0,-999.0,98,-99.99,,,0.00,Acu-Link.com,2013-09-03 22:50:00,
2013-09-03 19:06:00,69.1,68.5,29.70,WSW,247,0.0,-999.0,98,-99.99,,,0.00,Acu-Link.com,2013-09-03 23:06:00,
2013-09-03 19:21:00,68.2,67.6,29.71,WSW,247,0.0,-999.0,98,-99.99,,,0.00,Acu-Link.com,2013-09-03 23:21:00,
2013-09-03 19:36:00,67.1,66.5,29.71,WNW,292,0.0,-999.0,98,-99.99,,,0.00,Acu-Link.com,2013-09-03 23:36:00,
2013-09-03 19:51:00,66.2,65.6,29.72,SW,225,0.0,-999.0,98,-99.99,,,0.00,Acu-Link.com,2013-09-03 23:51:00,
2013-09-03 20:06:00,65.7,65.1,29.73,NE,45,0.0,-999.0,98,-99.99,,,0.00,Acu-Link.com,2013-09-04 00:06:00,
2013-09-03 20:21:00,66.2,65.6,29.74,East,90,0.0,-999.0,98,-99.99,,,0.00,Acu-Link.com,2013-09-04 00:21:00,
2013-09-03 20:36:00,66.2,65.6,29.74,West,270,0.0,-999.0,98,-99.99,,,0.00,Acu-Link.com,2013-09-04 00:36:00,
2013-09-03 20:51:00,65.7,65.1,29.75,West,270,1.1,-999.0,98,-99.99,,,0.00,Acu-Link.com,2013-09-04 00:51:00,
2013-09-03 21:06:00,64.8,64.2,29.75,West,270,0.0,-999.0,98,-99.99,,,0.00,Acu-Link.com,2013-09-04 01:06:00,
2013-09-03 21:22:00,64.0,63.4,29.75,WNW,292,0.0,-999.0,98,-99.99,,,0.00,Acu-Link.com,2013-09-04 01:22:00,
2013-09-03 21:37:00,63.5,62.9,29.76,WSW,247,1.1,-999.0,98,-99.99,,,0.00,Acu-Link.com,2013-09-04 01:37:00,
2013-09-03 21:52:00,62.8,62.2,29.76,West,270,0.0,-999.0,98,-99.99,,,0.00,Acu-Link.com,2013-09-04 01:52:00,
2013-09-03 22:07:00,62.4,61.8,29.76,West,270,0.0,-999.0,98,-99.99,,,0.00,Acu-Link.com,2013-09-04 02:07:00,
2013-09-03 22:22:00,61.7,61.1,29.77,West,270,0.0,-999.0,98,-99.99,,,0.00,Acu-Link.com,2013-09-04 02:22:00,
2013-09-03 22:37:00,61.3,60.7,29.77,West,270,0.0,-999.0,98,-99.99,,,0.00,Acu-Link.com,2013-09-04 02:37:00,
2013-09-03 22:52:00,60.8,60.2,29.77,WNW,292,0.0,-999.0,98,-99.99,,,0.00,Acu-Link.com,2013-09-04 02:52:00,
2013-09-03 23:07:00,60.4,59.8,29.77,West,270,0.0,-999.0,98,-99.99,,,0.00,Acu-Link.com,2013-09-04 03:07:00,
2013-09-03 23:22:00,59.9,59.3,29.78,West,270,0.0,-999.0,98,-99.99,,,0.00,Acu-Link.com,2013-09-04 03:22:00,
2013-09-03 23:38:00,59.4,58.8,29.78,West,270,1.1,-999.0,98,-99.99,,,0.00,Acu-Link.com,2013-09-04 03:38:00,
2013-09-03 23:53:00,58.8,58.2,29.78,West,270,0.0,-999.0,98,-99.99,,,0.00,Acu-Link.com,2013-09-04 03:53:00,